GLOBALSTAR M039 [+]

Last updated on Wed May 04 2016 15:39:28 GMT+0000 (Coordinated Universal Time)

1 25961U 99062A 16125.51421542 -.00000104 00000-0 00000+0 0 9993 2 25961 51.9856 331.5721 0003248 158.4546 201.6457 12.62175686759630

Satellite not in orbit

GLOBALSTAR M039 [+]